Weather History for Mobridge, SD

Change the Weather History Date:

Wednesday, April 30, 2014

  Actual Average Record
Temperature  
Mean Temperature 42 °F 51 °F  
Max Temperature 51 °F 64 °F 96 °F (1992)
Min Temperature 32 °F 38 °F 18 °F (1960)
Degree Days  
Heating Degree Days 23 14  
Month to date heating degree days 673 593  
Since 1 July heating degree days 8357 7595  
Cooling Degree Days 0 0  
Month to date cooling degree days 0 1  
Year to date cooling degree days 0 1  
Moisture  
Dew Point 29 °F    
Average Humidity 61    
Maximum Humidity 82    
Minimum Humidity 39    
Precipitation  
Precipitation 0.00 in 0.09 in 0.75 in (1972)
Month to date precipitation 2.35 1.57  
Year to date precipitation 3.47 3.20  
Snow  
Snow 0.00 in - - ()
Month to date snowfall 3.5  
Since 1 July snowfall 44.3  
Snow Depth 0.00 in    
Sea Level Pressure  
Sea Level Pressure 30.09 in    
Wind  
Wind Speed 18 mph (NNW)    
Max Wind Speed 31 mph    
Max Gust Speed 39 mph    
Visibility 10 miles    
Events      
T = Trace of Precipitation, MM = Missing Value Source: NWS Daily Summary

Daily Weather History Graph

Daily Weather History Graph

Search for Another Location

Airport:

Trip Planner

Search our weather history database for the weather conditions in past years. The results will help you decide how hot, cold, wet, or windy it might be!

Date:

Astronomy

Apr. 30, 2014 Rise Set
Actual Time 6:31 AM CDT 8:47 PM CDT
Civil Twilight 5:58 AM CDT 9:20 PM CDT
Nautical Twilight 5:18 AM CDT 10:00 PM CDT
Astronomical Twilight 4:32 AM CDT 10:46 PM CDT
Moon 7:32 AM CDT (4/30) 10:30 PM CDT (4/30)
Length of Visible Light 15h 21m
Length of Day
14h 16m
New Moon, 2% of the Moon is Illuminated
Apr 30
New Moon
May 6
First Quarter
May 14
Full
May 21
Last Quarter
May 28
New

Hourly Weather History & Observations

Time (CDT) Temp. Windchill Dew Point Humidity Pressure Visibility Wind Dir Wind Speed Gust Speed Precip Events Conditions
12:52 AM 33.1 °F 26.1 °F 27.0 °F 78% 30.12 in 10.0 mi NNW 8.1 mph - N/A   Clear
1:52 AM 34.0 °F 24.6 °F 28.0 °F 79% 30.11 in 10.0 mi NW 13.8 mph - N/A   Clear
2:52 AM 35.1 °F 27.4 °F 28.0 °F 76% 30.09 in 10.0 mi NW 10.4 mph - N/A   Clear
3:52 AM 34.0 °F 24.2 °F 28.0 °F 79% 30.09 in 10.0 mi NW 15.0 mph - N/A   Clear
4:52 AM 34.0 °F 26.0 °F 27.0 °F 75% 30.10 in 10.0 mi NW 10.4 mph - N/A   Clear
6:52 AM 35.1 °F 24.8 °F 27.0 °F 72% 30.11 in 10.0 mi NNW 17.3 mph - N/A   Overcast
7:52 AM 36.0 °F 25.0 °F 28.0 °F 73% 30.10 in 10.0 mi NNW 20.7 mph - N/A   Clear
8:52 AM 37.0 °F 27.0 °F 28.0 °F 70% 30.12 in 10.0 mi NNW 18.4 mph - N/A   Mostly Cloudy
10:52 AM 42.1 °F 32.1 °F 27.0 °F 55% 30.11 in 10.0 mi NNW 25.3 mph 34.5 mph N/A   Partly Cloudy
11:52 AM 46.9 °F - 27.0 °F 46% 30.09 in 10.0 mi North 28.8 mph 35.7 mph N/A   Partly Cloudy
12:52 PM 48.9 °F - 28.9 °F 46% 30.09 in 10.0 mi North 28.8 mph 35.7 mph N/A   Scattered Clouds
1:52 PM 50.0 °F - 28.0 °F 43% 30.08 in 10.0 mi NNW 24.2 mph 31.1 mph N/A   Scattered Clouds
2:52 PM 50.0 °F - 26.1 °F 39% 30.07 in 10.0 mi North 24.2 mph 33.4 mph N/A   Mostly Cloudy
3:52 PM 48.9 °F - 26.1 °F 41% 30.08 in 10.0 mi North 20.7 mph 32.2 mph N/A   Overcast
4:52 PM 50.0 °F - 27.0 °F 41% 30.07 in 10.0 mi NNW 25.3 mph 32.2 mph N/A   Mostly Cloudy
5:52 PM 50.0 °F - 28.9 °F 44% 30.06 in 10.0 mi North 19.6 mph 28.8 mph N/A   Mostly Cloudy
6:52 PM 50.0 °F - 30.9 °F 48% 30.06 in 10.0 mi North 18.4 mph 28.8 mph N/A   Overcast
7:52 PM 48.9 °F - 30.0 °F 48% 30.06 in 10.0 mi North 23.0 mph 31.1 mph N/A   Overcast
8:52 PM 46.9 °F - 32.0 °F 56% 30.06 in 10.0 mi North 17.3 mph - N/A   Overcast
9:52 PM 46.9 °F - 32.0 °F 56% 30.07 in 10.0 mi North 11.5 mph - N/A   Overcast
10:52 PM 46.0 °F 40.6 °F 33.1 °F 61% 30.07 in 10.0 mi NNW 11.5 mph - N/A   Overcast
11:52 PM 43.0 °F 37.7 °F 33.1 °F 68% 30.07 in 10.0 mi NNW 9.2 mph - N/A   Scattered Clouds